Wind_Speed
4 3 6 9 9 6 4 7 6 4 3 1 7 12 11 19 19 19 23 26 27 30 26 25 28 31 30 33 33 35 37 37 36 36 37 38 38 36 35 35 31 30 32 35
3 5 8 3 5 3 1 6 7 6 6 1 8 13 10 14 18 27 28 29 30 29 27 27 28 29 32 32 35 37 39 39 38 38 39 39 37 37 36 37 36 35 35 37
5 1 5 5 2 2 4 6 7 5 3 6 4 10 7 10 24 27 30 33 32 31 26 23 26 31 32 32 34 37 40 40 40 38 38 38 38 38 39 41 40 39 41 41
6 4 4 4 5 6 5 4 6 4 4 3 3 6 4 10 8 10 24 22 22 21 21 22 24 21 33 32 29 32 36 39 39 38 40 41 41 41 41 40 39 38 41 45
4 6 5 4 5 6 2 3 3 3 3 5 4 2 8 7 7 7 14 20 17 10 12 13 14 18 22 23 28 28 31 36 38 39 40 40 41 41 41 40 38 38 38 39
2 1 2 3 4 3 7 4 3 2 2 5 10 9 4 6 6 3 3 4 3 3 6 9 14 17 18 23 24 26 27 30 34 38 39 40 41 41 41 41 41 40 38 37
6 5 3 3 5 5 2 4 1 2 0 7 3 5 11 8 10 5 6 10 7 4 6 8 11 12 13 16 18 19 22 26 29 33 36 38 39 40 41 40 42 41 41 40
8 4 10 7 7 8 9 7 5 6 4 3 6 7 6 9 7 8 9 14 10 11 10 13 10 12 12 12 13 14 16 19 23 25 29 31 34 38 40 39 42 42 42 39
5 6 2 4 2 6 5 7 3 4 2 3 5 7 7 6 7 9 13 15 14 9 7 10 10 12 14 12 11 11 11 12 15 18 20 25 28 31 34 35 38 41 41 39
2 5 3 3 3 4 3 1 3 2 2 4 7 7 8 2 8 10 4 3 3 7 8 6 7 11 9 6 5 5 6 7 9 12 16 19 22 24 25 28 32 36 37 38
4 4 1 3 6 8 3 4 3 3 5 5 5 7 3 2 6 8 6 6 3 4 8 9 6 2 2 2 3 7 11 13 15 16 16 17 19 21 23 26 28 31 33 35
2 2 5 7 3 3 2 6 7 4 3 3 2 15 2 7 7 10 4 6 14 9 3 9 10 9 9 9 10 19 21 16 19 24 27 25 24 23 24 25 27 29 32 34
3 2 2 3 1 3 3 4 5 6 2 7 6 11 6 3 8 4 1 3 5 5 5 15 17 22 27 31 28 29 27 27 28 28 31 28 28 29 26 25 27 29 31 32
9 4 6 6 5 4 3 3 4 6 3 16 13 21 21 9 8 10 20 13 10 11 12 19 29 33 39 35 32 33 30 31 36 31 29 32 31 34 30 28 28 29 30 31
6 7 9 11 13 11 9 8 13 14 14 8 19 16 30 16 13 17 22 24 26 28 28 28 33 38 39 40 35 32 34 38 40 33 31 29 33 35 32 32 31 30 31 31
6 3 8 9 12 12 15 15 18 20 23 21 28 26 29 34 29 28 30 23 28 27 28 28 29 32 37 38 38 36 37 39 39 36 37 31 29 32 33 32 31 30 31 31
5 4 4 11 4 6 9 20 16 20 21 21 20 24 11 13 15 24 24 29 34 34 37 37 36 36 34 34 34 34 36 35 35 36 34 31 31 32 32 32 31 31 30 29
3 3 3 4 3 10 8 2 11 15 16 13 15 16 24 26 37 38 27 31 36 36 36 34 34 34 34 35 37 38 38 36 34 32 29 29 30 30 30 30 30 28 27 27
13 5 3 4 5 9 16 15 3 6 14 7 12 17 26 20 20 26 15 10 20 23 23 25 28 30 29 31 32 31 26 23 21 20 21 22 22 23 24 24 23 23 23 23
14 15 9 7 4 6 18 14 14 5 11 8 6 7 9 19 7 10 21 32 32 29 29 29 28 30 29 29 29 27 25 23 25 24 22 20 20 19 18 18 18 18 17 17
4 3 14 14 12 7 9 16 13 5 8 2 10 14 16 5 9 27 32 33 31 32 29 29 29 31 31 31 31 29 27 26 24 21 19 17 16 15 14 14 14 13 12 12
7 5 4 4 7 13 4 4 7 2 5 16 18 20 21 26 32 32 32 35 37 36 34 32 32 34 34 31 30 28 24 21 18 17 15 14 13 12 11 10 8 7 7 7
4 7 4 8 5 3 2 7 7 7 5 16 20 25 29 29 31 34 37 40 42 39 37 37 34 33 33 32 26 23 19 18 16 13 11 9 8 8 7 6 5 6 7 8
4 4 2 3 8 14 17 14 17 17 23 18 25 30 32 29 30 36 40 44 43 42 42 37 35 31 30 28 25 20 18 15 11 9 8 7 6 6 7 9 10 9 9 8
5 3 2 5 10 9 19 21 20 28 27 24 28 30 30 27 34 37 43 45 45 44 38 36 33 29 27 25 19 17 13 11 11 9 9 10 12 13 13 14 15 13 15 15
9 9 6 9 17 11 19 27 30 35 31 34 34 41 43 36 36 38 39 37 35 35 33 31 29 27 24 22 17 17 14 11 12 13 14 14 15 16 16 15 17 16 13 12
Wind_Direction
181 207 197 204 224 257 24 321 332 56 120 160 241 260 261 269 262 247 247 248 250 251 251 251 242 245 245 235 232 233 232 237 235 233 230 232 235 237 236 235 223 228 232 238
121 226 236 80 32 199 176 290 284 299 103 134 275 278 265 267 256 248 254 255 254 257 253 247 248 240 243 243 235 232 236 240 241 236 239 238 241 243 245 244 244 232 230 232
203 136 184 121 113 147 231 239 265 277 358 223 288 279 237 252 250 255 251 255 258 256 256 251 241 240 243 246 242 238 239 242 242 241 239 239 240 242 243 245 245 240 237 237
225 165 134 155 226 182 254 271 222 317 21 250 34 288 290 297 283 230 250 254 262 267 260 251 238 243 244 253 255 251 241 238 242 242 241 241 244 246 249 251 254 247 242 242
195 156 167 179 170 180 199 6 120 108 241 316 204 243 269 247 267 251 265 279 272 274 253 246 236 240 246 249 254 255 249 243 242 242 241 243 246 248 252 251 253 253 251 247
39 87 179 172 59 12 134 98 117 143 195 263 206 210 227 232 239 280 146 116 60 290 233 233 237 245 239 245 251 256 252 247 243 242 243 243 247 249 250 252 253 255 255 252
175 181 127 139 91 34 252 145 291 299 286 237 323 244 237 290 289 257 277 283 315 290 267 282 279 263 249 243 245 246 246 245 243 243 246 247 248 252 255 256 260 260 259 255
199 204 149 190 193 171 197 187 173 208 204 268 330 245 263 218 248 287 266 281 299 298 284 298 283 259 252 243 242 245 248 246 246 248 252 254 254 254 258 258 261 263 263 260
198 230 115 145 90 138 180 220 249 337 19 33 234 273 292 199 234 286 290 296 306 328 297 281 275 249 249 252 256 254 251 249 247 254 254 256 257 257 260 262 261 265 268 263
234 271 353 60 65 305 182 203 108 252 205 250 263 293 247 339 241 244 214 84 17 330 335 322 232 245 248 259 262 276 290 290 280 272 268 265 264 264 264 263 262 265 268 268
174 219 31 103 204 175 144 226 217 170 185 184 272 255 270 164 77 99 69 58 36 22 20 39 45 24 348 14 34 23 353 335 318 297 284 277 270 266 266 265 264 265 266 264
275 301 220 199 120 42 261 221 193 172 226 241 171 266 70 101 111 98 90 325 319 326 42 54 34 32 15 341 320 326 312 308 312 302 286 276 272 268 266 269 269 265 265 263
333 334 63 330 118 55 225 215 235 270 36 212 166 259 146 67 81 86 331 326 22 2 290 328 330 327 325 320 304 298 296 299 309 301 279 272 273 271 272 273 273 269 266 264
120 159 219 226 106 49 149 193 237 202 230 249 245 268 272 292 315 324 319 316 314 312 313 307 300 300 309 312 307 301 295 299 303 294 270 270 276 277 266 273 274 273 270 266
130 200 210 249 281 293 275 281 297 283 277 264 268 268 276 281 283 287 288 304 306 301 296 290 288 291 302 305 304 296 293 297 301 289 277 273 272 272 262 269 270 270 269 268
150 226 205 255 245 248 263 259 243 240 248 245 251 255 258 273 277 278 280 297 300 304 302 298 295 293 296 295 296 294 292 294 296 288 284 279 267 267 267 269 269 268 268 267
173 148 160 257 210 238 256 241 238 244 242 238 247 259 279 290 285 284 298 304 299 299 297 295 294 295 296 295 291 290 291 293 287 285 283 274 268 266 266 268 269 268 267 265
144 139 195 261 101 234 250 201 232 241 258 259 266 273 276 278 283 286 297 289 293 298 301 299 298 296 293 291 291 291 289 287 282 278 276 273 268 266 265 264 264 264 261 259
209 193 237 243 211 292 306 284 292 291 276 249 245 250 265 298 328 297 296 324 341 331 320 317 315 309 302 300 301 297 292 285 282 278 275 270 266 264 264 263 261 258 255 255
216 212 214 255 237 238 262 271 269 3 273 353 34 16 349 345 318 294 315 317 320 323 327 321 309 298 297 298 297 293 288 285 286 283 276 270 265 262 259 258 255 255 253 253
152 196 222 233 242 260 254 258 275 279 266 18 13 348 325 300 288 302 314 317 314 319 319 319 321 318 306 297 295 293 288 284 279 273 271 269 267 266 265 262 258 253 250 248
178 166 188 212 237 258 246 350 194 245 340 327 320 311 293 300 306 306 313 316 317 317 315 312 311 311 314 307 296 288 284 276 269 264 264 263 264 264 261 255 247 233 220 210
243 211 196 184 204 235 242 296 299 296 279 312 305 309 310 298 301 310 312 312 312 315 314 313 306 301 303 304 294 282 273 268 264 257 247 247 249 247 231 213 196 173 162 160
288 272 204 27 276 276 300 291 303 300 297 298 305 307 305 290 303 309 312 307 307 309 312 306 301 297 291 291 290 274 265 252 238 227 220 205 181 165 152 140 130 125 119 120
215 31 223 271 284 313 290 291 296 315 310 300 295 297 301 284 299 306 308 303 302 306 308 301 296 291 282 275 269 261 244 225 207 197 179 158 141 128 126 118 108 106 107 104
233 248 254 263 275 281 288 287 288 296 293 296 297 299 296 294 296 298 300 307 309 310 308 301 293 284 273 254 232 227 206 190 166 145 132 127 122 122 127 128 127 123 116 113
Height
1516 1521 1523 1518 1517 1515 1520 1525 1523 1519 1526 1527 1527 1522 1515 1510 1507 1506 1506 1506 1506 1506 1509 1511 1512 1513 1516 1518 1520 1522 1524 1526 1529 1531 1534 1537 1538 1542 1545 1548 1552 1555 1558 1557
1517 1523 1513 1512 1515 1516 1520 1529 1529 1520 1524 1527 1524 1519 1510 1504 1499 1499 1498 1499 1499 1500 1502 1504 1505 1506 1507 1510 1513 1516 1517 1519 1522 1524 1527 1530 1533 1536 1539 1542 1544 1547 1549 1550
1514 1512 1510 1514 1519 1522 1522 1528 1529 1528 1525 1522 1525 1520 1503 1492 1491 1491 1491 1491 1492 1493 1496 1498 1499 1500 1501 1503 1506 1509 1511 1513 1515 1519 1522 1525 1529 1531 1532 1532 1536 1539 1540 1541
1511 1510 1514 1516 1521 1522 1529 1519 1522 1526 1534 1542 1523 1543 1503 1495 1490 1486 1484 1485 1485 1487 1488 1491 1494 1494 1495 1497 1501 1503 1505 1508 1510 1513 1515 1517 1518 1521 1522 1525 1527 1532 1533 1534
1510 1513 1516 1518 1517 1517 1523 1522 1522 1524 1534 1534 1529 1544 1509 1493 1492 1484 1480 1480 1482 1484 1485 1486 1489 1491 1491 1494 1495 1497 1499 1501 1503 1505 1507 1509 1512 1514 1516 1519 1521 1523 1526 1528
1511 1511 1512 1513 1518 1519 1522 1526 1526 1529 1535 1551 1528 1529 1507 1497 1485 1477 1477 1479 1481 1482 1483 1485 1486 1487 1487 1488 1490 1491 1492 1494 1497 1499 1501 1502 1504 1506 1508 1509 1511 1514 1516 1518
1510 1510 1512 1514 1522 1522 1524 1528 1547 1554 1559 1547 1514 1520 1497 1480 1475 1477 1477 1478 1481 1481 1482 1483 1483 1484 1485 1485 1485 1486 1487 1488 1491 1493 1495 1498 1500 1500 1501 1502 1502 1505 1506 1508
1511 1519 1511 1509 1511 1519 1525 1524 1542 1551 1550 1535 1527 1520 1495 1474 1472 1473 1474 1476 1478 1481 1480 1479 1480 1479 1480 1481 1482 1483 1484 1485 1487 1489 1491 1493 1495 1496 1495 1497 1495 1495 1496 1501
1505 1502 1497 1502 1505 1506 1520 1526 1513 1528 1549 1550 1518 1493 1479 1474 1474 1473 1473 1475 1476 1477 1477 1476 1477 1477 1477 1478 1480 1481 1482 1483 1484 1485 1487 1487 1489 1489 1490 1491 1490 1489 1489 1491
1493 1504 1504 1506 1506 1505 1510 1509 1528 1531 1549 1550 1512 1505 1496 1480 1478 1472 1472 1475 1476 1476 1475 1474 1474 1475 1477 1477 1479 1480 1481 1482 1483 1483 1484 1484 1485 1485 1484 1484 1483 1482 1482 1483
1492 1500 1512 1507 1508 1507 1514 1514 1511 1512 1521 1534 1526 1505 1469 1472 1472 1474 1475 1476 1478 1476 1475 1474 1474 1475 1477 1478 1479 1480 1481 1482 1482 1482 1482 1481 1480 1479 1479 1477 1476 1475 1476 1476
1492 1496 1505 1504 1497 1499 1500 1499 1505 1517 1519 1520 1524 1487 1467 1469 1470 1473 1477 1478 1478 1477 1477 1476 1476 1476 1478 1480 1479 1479 1480 1479 1479 1479 1477 1475 1475 1474 1472 1471 1470 1470 1469 1470
1499 1506 1515 1503 1503 1501 1501 1498 1499 1501 1512 1517 1526 1488 1462 1469 1475 1475 1475 1476 1477 1477 1478 1478 1477 1476 1477 1477 1476 1475 1474 1473 1473 1471 1470 1469 1468 1467 1466 1464 1463 1463 1463 1463
1497 1507 1506 1498 1494 1494 1498 1499 1499 1504 1518 1497 1503 1482 1469 1475 1477 1476 1475 1475 1476 1477 1478 1477 1475 1474 1474 1472 1470 1467 1466 1466 1465 1462 1461 1461 1461 1460 1459 1458 1457 1455 1455 1455
1497 1503 1504 1499 1495 1495 1503 1509 1506 1505 1502 1507 1487 1491 1460 1476 1477 1476 1473 1473 1474 1473 1474 1474 1472 1470 1468 1465 1464 1462 1460 1458 1456 1453 1451 1449 1450 1450 1450 1449 1448 1447 1447 1447
1494 1498 1500 1499 1495 1496 1497 1494 1493 1495 1491 1493 1485 1483 1463 1467 1471 1470 1467 1471 1468 1467 1467 1468 1467 1465 1462 1459 1456 1454 1452 1450 1448 1445 1443 1443 1440 1440 1440 1440 1440 1440 1440 1440
1494 1497 1500 1491 1493 1496 1498 1483 1487 1480 1476 1477 1478 1465 1468 1465 1465 1461 1467 1468 1462 1462 1461 1461 1460 1458 1455 1452 1449 1446 1443 1440 1438 1437 1436 1434 1433 1432 1433 1432 1432 1433 1434 1435
1493 1497 1500 1494 1498 1492 1472 1465 1468 1471 1468 1469 1469 1466 1462 1463 1458 1455 1464 1459 1457 1455 1454 1453 1452 1450 1448 1445 1441 1439 1435 1433 1429 1427 1426 1427 1425 1424 1425 1423 1423 1425 1427 1427
1487 1494 1496 1493 1493 1481 1474 1465 1471 1473 1466 1464 1465 1460 1458 1458 1456 1450 1457 1455 1453 1451 1450 1447 1445 1443 1440 1437 1434 1430 1426 1424 1422 1420 1419 1418 1417 1418 1417 1416 1416 1416 1418 1421
1480 1483 1493 1494 1510 1515 1462 1462 1464 1462 1467 1461 1461 1461 1461 1458 1460 1454 1452 1450 1447 1447 1445 1441 1440 1438 1433 1430 1427 1424 1422 1419 1418 1416 1414 1412 1411 1411 1410 1410 1409 1410 1412 1414
1483 1488 1483 1481 1481 1475 1460 1456 1461 1478 1467 1463 1463 1463 1461 1461 1460 1456 1452 1447 1445 1442 1440 1437 1433 1430 1427 1424 1421 1418 1416 1414 1411 1410 1409 1408 1407 1407 1405 1404 1405 1406 1408 1410
1476 1489 1488 1487 1479 1472 1454 1454 1462 1461 1459 1461 1459 1459 1459 1456 1451 1450 1446 1442 1439 1436 1434 1433 1429 1425 1420 1418 1415 1412 1411 1409 1407 1404 1404 1403 1402 1402 1401 1401 1402 1402 1405 1407
1478 1464 1469 1464 1461 1453 1452 1453 1455 1456 1458 1460 1458 1454 1452 1451 1447 1443 1437 1434 1433 1430 1428 1425 1423 1419 1415 1411 1410 1407 1404 1403 1403 1403 1400 1399 1398 1400 1399 1400 1402 1402 1403 1406
1458 1454 1464 1463 1450 1448 1449 1449 1452 1454 1454 1452 1451 1450 1447 1443 1441 1437 1433 1429 1425 1423 1420 1417 1414 1411 1410 1406 1404 1405 1404 1399 1399 1398 1398 1397 1396 1398 1402 1401 1402 1404 1405 1408
1456 1455 1457 1456 1447 1447 1447 1448 1446 1445 1447 1445 1442 1443 1441 1439 1434 1430 1426 1423 1418 1415 1411 1409 1405 1403 1403 1403 1398 1400 1403 1400 1397 1396 1397 1397 1397 1396 1402 1405 1406 1408 1408 1409
1448 1449 1453 1447 1446 1447 1445 1444 1444 1443 1441 1440 1436 1432 1431 1431 1429 1424 1421 1417 1412 1408 1404 1401 1399 1397 1396 1397 1394 1398 1397 1401 1397 1398 1399 1400 1398 1399 1404 1407 1407 1409 1412 1412